Location: *
(43.0167°S, 179.9000°E)
Time: 20:19:18
(UTC+00:00)

Cosmos 1606 - Pass Details

Date: 12 August 2024
Orbit: 446 x 461 km, 82.5° (Epoch: 10 September)

Event Time Altitude Azimuth Distance (km) Brightness Sun altitude
Rises 18:21:41 0° 198° (SSW) 2,562 5.9 -7.0°
Reaches altitude 10° 18:23:57 10° 208° (SSW) 1,675 4.9 -6.6°
Maximum altitude 18:27:13 31° 271° (W) 862 3.3 -6.0°
Drops below altitude 10° 18:30:28 10° 335° (NNW) 1,653 5.2 -5.5°
Sets 18:32:41 0° 345° (NNW) 2,521 6.2 -5.1°
